Back to catalog

USA 148

AliveMilitaryGEO
NORAD 26052·PAYLOAD·🇺🇸 United States

Launched Jan 21, 2000 from Cape Canaveral Space Force Station

Loading…

TLE

FreshSource: Space-Track

Epoch: Sep 14, 2026, 05:03 UTC

1 26052U 00001A   26257.21077068 -.00000257  00000-0  00000-0 0  9994
2 26052  12.0511  31.7512 0004024  36.0499 321.1973  0.99113341 33796

Track USA 148 in real time with AllMySat

Download on the App Store